Date String (YYYY-MM-DD hh:mm:ss) UTC,Instrument flags,Ambient pressure (hPa),Sample flow (lpm),Bypass flow (lpm),Sample temperature (°C),Ambient temperature (°C),ASC tube jacket temperature (°C),LED temperature (°C),Box temperature (°C),Sample RH (%),Span deviation,Mass concentration (μg/m³),Mass concentration (μg/m³),Mass concentration (μg/m³)
DateTimeUTC,F1_M11,P_M11,Q1_M11,Q2_M11,T1_M11,T2_M11,T3_M11,T4_M11,T5_M11,U1_M11,ZSPAN_M11,X2_M11,X0_M11,X1_M11
2022-07-27 18:00:00,,0829.6,4.99,0.00,32.0,27.8,00.0,40.1,32.2,34.7,-000.2,0009.03,0014.91,0008.34
2022-07-27 18:01:00,,0829.5,5.00,0.00,32.0,28.0,00.0,40.1,32.2,35.3,-000.0,0009.10,0015.33,0008.41
2022-07-27 18:02:00,,0829.5,5.00,0.00,32.0,28.2,00.0,40.1,32.3,33.8,0000.4,0009.10,0015.24,0008.37
2022-07-27 18:03:00,,0829.6,5.02,0.00,32.1,28.3,00.0,40.1,32.4,33.7,0000.5,0009.13,0015.36,0008.35
2022-07-27 18:04:00,,0829.5,4.99,0.00,32.2,28.5,00.0,40.1,32.4,34.3,0000.3,0009.27,0015.89,0008.42
2022-07-27 18:05:00,,0829.7,4.99,0.00,32.2,28.6,00.0,40.1,32.5,33.8,0000.3,0009.52,0016.01,0008.63
2022-07-27 18:06:00,,0829.5,4.99,0.00,32.1,28.1,00.0,40.0,32.4,34.0,0000.3,0009.66,0015.45,0008.78
2022-07-27 18:07:00,,0829.6,5.02,0.00,32.1,27.5,00.0,40.0,32.3,34.9,-000.1,0009.78,0015.13,0008.89
2022-07-27 18:08:00,,0829.6,5.00,0.00,32.1,27.4,00.0,40.0,32.3,34.8,-000.1,0009.82,0015.21,0008.93
2022-07-27 18:09:00,,0829.6,4.99,0.00,32.1,27.4,00.0,40.0,32.2,35.8,-000.1,0009.81,0015.47,0008.92
2022-07-27 18:10:00,,0829.5,5.01,0.00,32.2,27.6,00.0,40.0,32.3,35.3,0000.0,0009.82,0015.80,0008.92
2022-07-27 18:11:00,,0829.6,5.00,0.00,32.5,27.7,00.0,40.0,32.5,35.1,0000.2,0009.83,0015.78,0008.89
2022-07-27 18:12:00,,0829.5,4.99,0.00,32.8,27.9,00.0,40.0,32.6,34.2,0000.1,0009.82,0015.72,0008.83
2022-07-27 18:13:00,,0829.6,5.01,0.00,32.9,28.1,00.0,40.0,32.6,33.3,-000.4,0009.86,0015.32,0008.90
2022-07-27 18:14:00,,0829.5,5.00,0.00,33.0,28.3,00.0,40.1,32.6,33.2,-000.4,0010.11,0016.41,0009.10
2022-07-27 18:15:00,,0829.5,5.00,0.00,33.0,28.5,00.0,40.2,32.6,33.4,-000.0,0010.24,0016.56,0009.23
2022-07-27 18:16:00,,0829.6,5.00,0.00,33.0,28.6,00.0,40.3,32.6,33.6,0000.2,0010.17,0016.40,0009.22
2022-07-27 18:17:00,,0829.6,5.01,0.00,32.9,28.3,00.0,40.3,32.6,33.1,0000.5,0010.14,0016.84,0009.23
2022-07-27 18:18:00,,0829.5,4.99,0.00,32.8,27.7,00.0,40.3,32.5,32.5,0000.6,0010.16,0017.38,0009.27
2022-07-27 18:19:00,,0829.5,5.01,0.00,32.7,27.5,00.0,40.3,32.4,32.1,0000.7,0010.21,0017.67,0009.32
2022-07-27 18:20:00,,0829.5,4.99,0.00,32.6,27.5,00.0,40.3,32.3,32.4,0000.5,0010.24,0017.45,0009.38
2022-07-27 18:21:00,,0829.5,5.01,0.00,32.4,27.6,00.0,40.3,32.2,33.4,0000.6,0010.33,0017.59,0009.48
2022-07-27 18:22:00,,0829.5,4.99,0.00,32.3,27.8,00.0,40.3,32.2,34.4,0000.5,0010.46,0017.83,0009.62
2022-07-27 18:23:00,,0829.5,5.01,0.00,32.2,28.0,00.0,40.3,32.3,33.7,0000.7,0010.54,0017.58,0009.74
2022-07-27 18:24:00,,0829.5,5.00,0.00,32.2,28.2,00.0,40.3,32.3,33.6,0000.8,0010.69,0018.03,0009.84
2022-07-27 18:25:00,,0829.5,5.00,0.00,32.1,28.3,00.0,40.3,32.3,34.3,0000.9,0010.72,0017.43,0009.91
2022-07-27 18:26:00,,0829.5,5.00,0.00,32.0,28.5,00.0,40.3,32.4,34.7,0000.8,0010.73,0017.63,0009.95
2022-07-27 18:27:00,,0829.5,5.01,0.00,32.0,28.6,00.0,40.2,32.4,35.1,0000.5,0010.81,0017.48,0010.02
2022-07-27 18:28:00,,0829.6,4.99,0.00,32.2,28.1,00.0,40.2,32.5,35.3,0000.5,0010.90,0017.31,0010.10
2022-07-27 18:29:00,,0829.6,5.02,0.00,32.4,27.6,00.0,40.1,32.6,35.3,0000.7,0010.91,0017.22,0010.11
2022-07-27 18:30:00,,0829.5,5.01,0.00,32.6,27.5,00.0,40.1,32.6,34.6,0000.6,0010.87,0017.36,0010.06
2022-07-27 18:31:00,,0829.6,5.01,0.00,32.7,27.5,00.0,40.1,32.4,33.1,0000.4,0010.89,0017.98,0010.06
2022-07-27 18:32:00,,0829.6,4.99,0.00,32.7,27.7,00.0,40.1,32.4,32.4,0000.2,0010.94,0018.12,0010.09
2022-07-27 18:33:00,,0829.5,5.00,0.00,32.6,27.8,00.0,40.1,32.4,32.6,-000.1,0010.88,0018.41,0010.03
2022-07-27 18:34:00,,0829.6,4.98,0.00,32.6,28.0,00.0,40.2,32.4,32.9,-000.4,0010.86,0018.50,0010.04
2022-07-27 18:35:00,,0829.5,5.01,0.00,32.5,28.2,00.0,40.2,32.4,33.4,-000.4,0010.79,0018.64,0010.03
2022-07-27 18:36:00,,0829.6,4.99,0.00,32.5,28.4,00.0,40.3,32.4,34.0,-000.7,0010.63,0020.28,0009.91
2022-07-27 18:37:00,,0829.6,5.00,0.00,32.4,28.6,00.0,40.3,32.5,33.9,-000.8,0010.52,0020.12,0009.80
2022-07-27 18:38:00,,0829.6,5.01,0.00,32.4,28.5,00.0,40.3,32.5,33.6,-000.8,0010.42,0020.69,0009.72
2022-07-27 18:39:00,,0829.6,5.00,0.00,32.3,27.9,00.0,40.2,32.4,33.5,-000.8,0010.37,0020.60,0009.65
2022-07-27 18:40:00,,0829.5,5.00,0.00,32.2,27.5,00.0,40.2,32.3,34.2,-000.8,0010.34,0020.22,0009.61
2022-07-27 18:41:00,,0829.5,5.00,0.00,32.1,27.4,00.0,40.2,32.2,34.1,-000.6,0010.35,0019.78,0009.61
2022-07-27 18:42:00,,0829.5,5.00,0.00,31.9,27.5,00.0,40.1,32.1,33.7,0000.0,0010.33,0019.02,0009.61
2022-07-27 18:43:00,,0829.6,4.99,0.00,31.8,27.7,00.0,40.1,32.1,33.1,0000.1,0010.28,0018.88,0009.57
2022-07-27 18:44:00,,0829.5,5.01,0.00,31.8,27.9,00.0,40.1,32.1,34.4,0000.3,0010.28,0018.59,0009.54
2022-07-27 18:45:00,,0829.5,4.99,0.00,31.7,28.1,00.0,40.1,32.2,35.0,0000.5,0010.25,0018.40,0009.49
2022-07-27 18:46:00,,0829.5,4.99,0.00,31.8,28.3,00.0,40.0,32.3,35.4,0000.4,0010.16,0017.77,0009.38
2022-07-27 18:47:00,,0829.5,4.99,0.00,32.0,28.4,00.0,40.0,32.5,34.7,0000.7,0010.08,0016.18,0009.29
2022-07-27 18:48:00,,0829.5,4.99,0.00,32.2,28.6,00.0,40.0,32.6,34.5,0001.0,0010.00,0016.05,0009.21
2022-07-27 18:49:00,,0829.5,5.01,0.00,32.3,28.3,00.0,40.0,32.5,34.4,0000.9,0009.84,0015.44,0009.06
2022-07-27 18:50:00,,0829.5,4.99,0.00,32.2,27.7,00.0,40.0,32.3,34.5,0000.9,0009.68,0015.46,0008.91
2022-07-27 18:51:00,,0829.5,5.00,0.00,32.1,27.4,00.0,40.0,32.3,34.8,0000.9,0009.59,0015.63,0008.79
2022-07-27 18:52:00,,0829.4,5.00,0.00,32.0,27.4,00.0,40.0,32.1,35.3,0000.8,0009.43,0016.21,0008.67
2022-07-27 18:53:00,,0829.3,5.00,0.00,32.1,27.5,00.0,40.0,32.2,34.9,0000.6,0009.26,0016.92,0008.47
2022-07-27 18:54:00,,0829.4,4.99,0.00,32.2,27.7,00.0,40.0,32.3,34.0,0000.6,0009.10,0016.44,0008.29
2022-07-27 18:55:00,,0829.5,5.01,0.00,32.3,27.9,00.0,40.0,32.3,34.0,0000.7,0008.94,0016.04,0008.13
2022-07-27 18:56:00,,0829.5,5.00,0.00,32.3,28.1,00.0,40.0,32.3,33.8,0001.2,0008.75,0015.81,0007.95
2022-07-27 18:57:00,,0829.5,5.00,0.00,32.3,28.3,00.0,40.0,32.4,33.5,0001.6,0008.63,0016.14,0007.81
2022-07-27 18:58:00,,0829.5,5.00,0.00,32.3,28.4,00.0,40.0,32.4,33.8,0001.6,0008.49,0016.17,0007.66
2022-07-27 18:59:00,,0829.5,5.00,0.00,32.2,28.6,00.0,40.1,32.4,33.2,0001.4,0008.36,0015.46,0007.51
